This is the latest recevied weather packets stored in our database for station/object AA4XD. If no packets are shown the sender has not sent any weather packets the latest 10 day(s).
| Time | Temp. | Humidity | Pressure | Rain* | Wind** | Luminosity | Snow |
|---|---|---|---|---|---|---|---|
| 1777928375 | 32.22° C | 24% | 1013.1 hPa | 0 mm | - | 566 W/m² | - |
| 1777928073 | 31.67° C | 27% | 1013.2 hPa | 0 mm | - | 583 W/m² | - |
| 1777927771 | 31.67° C | 26% | 1013.2 hPa | 0 mm | - | 604 W/m² | - |
| 1777927469 | 31.11° C | 28% | 1013.2 hPa | 0 mm | - | 618 W/m² | - |
| 1777927168 | 30.56° C | 29% | 1013.3 hPa | 0 mm | - | 636 W/m² | - |
| 1777926865 | 30.56° C | 28% | 1013.3 hPa | 0 mm | - | 654 W/m² | - |
| 1777926561 | 30.56° C | 27% | 1013.3 hPa | 0 mm | - | 678 W/m² | - |
| 1777926258 | 30.56° C | 29% | 1013.3 hPa | 0 mm | - | 725 W/m² | - |
| 1777925954 | 30.56° C | 29% | 1013.8 hPa | 0 mm | - | 725 W/m² | - |
| 1777925652 | 31.67° C | 28% | 1013.8 hPa | 0 mm | - | 730 W/m² | - |
| 1777925349 | 31.67° C | 27% | 1013.5 hPa | 0 mm | - | 743 W/m² | - |
| 1777925046 | 30.56° C | 28% | 1013.7 hPa | 0 mm | - | 753 W/m² | - |
| 1777924743 | 30° C | 29% | 1013.9 hPa | 0 mm | - | 772 W/m² | - |
| 1777924438 | 29.44° C | 29% | 1013.8 hPa | 0 mm | - | 789 W/m² | - |
| 1777924135 | 30° C | 28% | 1013.8 hPa | 0 mm | - | 799 W/m² | - |
| 1777923831 | 30° C | 30% | 1014 hPa | 0 mm | - | 811 W/m² | - |
| 1777923527 | 29.44° C | 31% | 1014 hPa | 0 mm | - | 828 W/m² | - |
| 1777923224 | 29.44° C | 30% | 1014.1 hPa | 0 mm | - | 864 W/m² | - |
| 1777922923 | 30° C | 30% | 1014 hPa | 0 mm | - | 855 W/m² | - |
| 1777922620 | 30° C | 31% | 1014.2 hPa | 0 mm | - | 863 W/m² | - |
| 1777922319 | 29.44° C | 31% | 1014.6 hPa | 0 mm | - | 878 W/m² | - |
| 1777922016 | 28.89° C | 31% | 1014.5 hPa | 0 mm | - | 891 W/m² | - |
| 1777921711 | 28.33° C | 31% | 1014.6 hPa | 0 mm | - | 905 W/m² | - |
| 1777921408 | 28.89° C | 29% | 1014.6 hPa | 0 mm | - | 919 W/m² | - |
| 1777921104 | 29.44° C | 30% | 1014.6 hPa | 0 mm | - | 930 W/m² | - |
* Rain latest hour (hover to see other rain measurements)
** Current wind speed in m/s (hover to see current wind gust speed)